Weather History for KJXN - April, 2014

Change the Weather History Date:

Tuesday, April 1, 2014

  Actual Average Record
Temperature  
Mean Temperature 46 °F 42 °F  
Max Temperature 56 °F 53 °F 73 °F (1986)
Min Temperature 36 °F 32 °F 15 °F (1964)
Degree Days  
Heating Degree Days 19 23  
Month to date heating degree days 19 23  
Since 1 July heating degree days 6758 5847  
Cooling Degree Days 0 0  
Month to date cooling degree days 0 0  
Year to date cooling degree days 0 0  
Moisture  
Dew Point 32 °F    
Average Humidity 64    
Maximum Humidity 82    
Minimum Humidity 46    
Precipitation  
Precipitation 0.02 in 0.08 in 0.93 in (1967)
Month to date precipitation 0.02 0.08  
Year to date precipitation 6.21 4.76  
Sea Level Pressure  
Sea Level Pressure 29.86 in    
Wind  
Wind Speed 15 mph (SW)    
Max Wind Speed 28 mph    
Max Gust Speed 37 mph    
Visibility 10 miles    
Events      
T = Trace of Precipitation, MM = Missing Value Source: NWS Daily Summary

Daily Weather History Graph

Daily Weather History Graph

Search for Another Location

Airport or City:

Trip Planner

Search our weather history database for the weather conditions in past years. The results will help you decide how hot, cold, wet, or windy it might be!

Date:

Astronomy

Apr. 01, 2014 Rise Set
Actual Time 7:20 AM EDT 8:03 PM EDT
Civil Twilight 6:52 AM EDT 8:32 PM EDT
Nautical Twilight 6:18 AM EDT 9:05 PM EDT
Astronomical Twilight 5:43 AM EDT 9:40 PM EDT
Moon 8:20 AM EDT 10:28 PM EDT
Length of Visible Light 13h 39m
Length of Day
12h 43m
Waxing Crescent, 4% of the Moon is Illuminated
Apr 1
Waxing Crescent
Apr 7
First Quarter
Apr 15
Full
Apr 22
Last Quarter
Apr 29
New

Hourly Weather History & Observations

Time (EDT) Temp. Windchill Dew Point Humidity Pressure Visibility Wind Dir Wind Speed Gust Speed Precip Events Conditions
12:56 AM 46.0 °F 40.2 °F 30.0 °F 54% 29.95 in 10.0 mi SSE 12.7 mph - N/A   Mostly Cloudy
1:56 AM 46.0 °F 41.0 °F 32.0 °F 58% 29.92 in 10.0 mi SE 10.4 mph - N/A   Overcast
2:56 AM 46.0 °F 39.9 °F 30.9 °F 56% 29.90 in 10.0 mi SSE 13.8 mph - N/A   Overcast
3:56 AM 46.0 °F 41.9 °F 32.0 °F 58% 29.91 in 10.0 mi South 8.1 mph - N/A   Overcast
4:56 AM 43.0 °F 36.4 °F 37.0 °F 80% 29.84 in 10.0 mi SSE 12.7 mph - 0.02 in   Overcast
5:56 AM 45.0 °F 38.5 °F 37.9 °F 76% 29.81 in 10.0 mi SSE 13.8 mph - N/A   Overcast
6:56 AM 46.0 °F 40.2 °F 37.9 °F 73% 29.79 in 10.0 mi SSE 12.7 mph - N/A   Overcast
7:56 AM 46.9 °F - 37.9 °F 71% 29.78 in 10.0 mi South 13.8 mph - N/A   Scattered Clouds
8:56 AM 50.0 °F - 37.9 °F 63% 29.77 in 10.0 mi South 13.8 mph 24.2 mph N/A   Overcast
9:56 AM 54.0 °F - 39.9 °F 59% 29.75 in 10.0 mi South 16.1 mph - N/A   Mostly Cloudy
10:56 AM 54.0 °F - 41.0 °F 62% 29.73 in 10.0 mi SW 20.7 mph 33.4 mph N/A   Overcast
11:56 AM 51.1 °F - 34.0 °F 52% 29.75 in 10.0 mi WSW 18.4 mph 33.4 mph N/A   Mostly Cloudy
12:56 PM 52.0 °F - 32.0 °F 47% 29.76 in 10.0 mi SW 24.2 mph 33.4 mph N/A   Mostly Cloudy
1:56 PM 48.9 °F - 30.9 °F 50% 29.79 in 10.0 mi SW 21.9 mph 33.4 mph N/A   Mostly Cloudy
2:56 PM 48.9 °F - 30.0 °F 48% 29.81 in 10.0 mi WSW 17.3 mph 32.2 mph N/A   Overcast
3:56 PM 46.9 °F - 30.0 °F 52% 29.82 in 10.0 mi West 13.8 mph 31.1 mph N/A   Mostly Cloudy
4:56 PM 48.0 °F - 28.9 °F 48% 29.84 in 10.0 mi West 24.2 mph 33.4 mph N/A   Scattered Clouds
5:56 PM 46.9 °F - 28.9 °F 50% 29.87 in 10.0 mi West 16.1 mph 33.4 mph N/A   Partly Cloudy
6:56 PM 45.0 °F 38.9 °F 28.9 °F 53% 29.90 in 10.0 mi West 12.7 mph 26.5 mph N/A   Clear
7:56 PM 42.1 °F 34.9 °F 28.0 °F 58% 29.94 in 10.0 mi West 13.8 mph 20.7 mph N/A   Clear
8:56 PM 39.9 °F 32.1 °F 27.0 °F 60% 29.97 in 10.0 mi West 13.8 mph 21.9 mph N/A   Clear
9:56 PM 37.9 °F 30.5 °F 26.1 °F 62% 30.00 in 10.0 mi West 11.5 mph - N/A   Clear
10:56 PM 37.9 °F 30.9 °F 26.1 °F 62% 30.01 in 10.0 mi West 10.4 mph - N/A   Clear
11:56 PM 37.0 °F 29.8 °F 26.1 °F 65% 30.04 in 10.0 mi West 10.4 mph - N/A   Clear